User: anonymous   Login
Location: Griffin Ranch
(33.6186°N, 110.6622°W)
Time: 04:41:30
(UTC-07:00)
Language:

Cosmos 1812 - Orbit

View from above orbital plane
View from above orbital plane
View from above satellite
View from above satellite

Ground track
Ground track

The orbit data is extracted from the following two-line orbital elements,

1 17295U 87003A   15031.24641576  .00005727  00000-0  34028-3 0  5286
2 17295 082.5169 277.2677 0001958 228.5425 271.1485 15.11114032527704
Epoch (UTC): 31 January 2015 05:54:50
Eccentricity: 0.0001958
inclination: 82.5169°
perigee height: 531 km
apogee height: 534 km
right ascension of ascending node: 277.2677°
argument of perigee: 228.5425°
revolutions per day: 15.11114032
mean anomaly at epoch: 271.1485°
orbit number at epoch: 52770

The dashed part of the orbit path shows where the satellite is in the earth's shadow,  

DLR